Regional Weather Roundup
Issued by NWS

Home | Current Version | Previous Version | Text Only | Print | Product List | Glossary Off
Versions: 1 2 3 4 5 6 7 8 9 10 11 12 13 14 15 16 17 18 19 20 21 22 23 24 25 26 27 28 29 30 31 32 33 34 35 36 37 38 39 40 41 42 43 44 45 46 47 48 49 50

000
ASUS45 KPSR 201110
RWRAZ

ARIZONA HOURLY REGIONAL WEATHER ROUNDUP
NATIONAL WEATHER SERVICE PHOENIX AZ
400 AM MST FRI APR 20 2018

NOTE: FAIR INDICATES FEW OR NO CLOUDS BELOW 12,000 FEET WITH NO
SIGNIFICANT WEATHER AND/OR OBSTRUCTIONS TO VISIBILITY.

AZZ001>003-036-201200-
NORTHWEST ARIZONA

CITY           SKY/WX    TMP DP  RH WIND       PRES   REMARKS
BULLHEAD CITY  PTCLDY    59  34  38 NE6       29.92R
KINGMAN        MOCLDY    48  32  53 SW12      29.95R
$$

AZZ004>008-015-016-018-201200-
NORTH CENTRAL ARIZONA

CITY           SKY/WX    TMP DP  RH WIND       PRES   REMARKS
WILLIAMS       MOCLDY    30  21  69 SW7       29.91S WCI  23
PRESCOTT       PTCLDY    41  23  48 SW12      29.95R
FLAGSTAFF      CLEAR     28  18  66 SW8       29.92R WCI  20
PAYSON         CLEAR     39  21  48 CALM      29.95R
PAGE           MOCLDY    46  29  51 SW6       29.81F
$$

AZZ009>014-017-201200-
NORTHEAST ARIZONA

CITY           SKY/WX    TMP DP  RH WIND       PRES   REMARKS
WINSLOW        PTCLDY    35  17  47 S10       29.92R WCI  27
SAINT JOHNS    PTCLDY    40  21  46 SW14      29.93R WCI  32
WINDOW ROCK    MOCLDY    36  12  37 SW5       29.91R WCI  32
SHOW LOW       PTCLDY    32  16  51 S7        29.97S WCI  26
$$

AZZ540-542>544-546-548-201200-
GREATER PHOENIX AREA

CITY           SKY/WX    TMP DP  RH WIND       PRES   REMARKS
PHOENIX        CLEAR     57  32  38 W3        29.92R
BUCKEYE        CLEAR     50  32  50 CALM      29.95R
LUKE AFB       CLEAR     56  29  36 SW16      29.92R
DEER VALLEY    CLEAR     54  30  40 SW8       29.92R
SCOTTSDALE     CLEAR     56  31  38 CALM      29.94R
MESA-GATEWAY   CLEAR     53  31  42 SW9       29.95S
$$

AZZ539-553-201200-
SOUTHWEST MARICOPA COUNTY AND PINAL COUNTY

CITY           SKY/WX    TMP DP  RH WIND       PRES   REMARKS
CASA GRANDE    CLEAR     49  27  42 SW10      29.96R
GILA BEND      FAIR      54  30  40 S3        29.95S
$$

AZZ503-504-507>509-201200-
SOUTHEAST ARIZONA

CITY           SKY/WX    TMP DP  RH WIND       PRES   REMARKS
TUCSON         CLEAR     55  29  36 NW12      30.00R
DAVIS-MONTHAN  CLEAR     53  29  39 NW9       29.98R
NOGALES        CLEAR     47  24  40 CALM      30.00R
SIERRA VISTA   CLEAR     48  21  34 W10       29.99
DOUGLAS        CLEAR     53   8  16 W14       29.95R
SAFFORD        CLEAR     53  23  31 NW22G31   29.91R
$$

AZZ532-201200-
SOUTHWEST ARIZONA

CITY           SKY/WX    TMP DP  RH WIND       PRES   REMARKS
YUMA           NOT AVBL
$$

CAZ041-043-047-048-061-525>527-560>570-201200-
SOUTHERN CALIFORNIA

CITY           SKY/WX    TMP DP  RH WIND       PRES   REMARKS
DOWNTOWN L.A.  CLEAR     54  46  74 E5        30.08R
L.A. AIRPORT   PTCLDY    52  47  83 E7        30.09R
SAN DIEGO      MOCLDY    54  44  69 E8        30.14R
BURBANK        CLEAR     51  46  83 E7        30.07R
ONTARIO        MOCLDY    50  44  80 CALM      30.09S
RIVERSIDE      CLEAR     47  41  80 CALM      30.10R
PALM SPRINGS   CLEAR     56  38  50 NE5       29.99R
EL CENTRO NAS  CLEAR     56  34  43 W14       30.00R
IMPERIAL       CLEAR     52  37  56 W8        29.98R
BLYTHE         CLEAR     54  26  34 W3        29.95R
NEEDLES        CLEAR     62  29  28 W6        29.92R
$$

NVZ020-UTZ003-201200-
SOUTHERN NEVADA-UTAH

CITY           SKY/WX    TMP DP  RH WIND       PRES   REMARKS
LAS VEGAS      MOCLDY    56  36  47 NW14      29.92R
SALT LAKE CITY MOCLDY    53  30  41 SW9G18    29.72R
$$

NMZ009-TXZ055-201200-
NEW MEXICO-WEST TEXAS

CITY           SKY/WX    TMP DP  RH WIND       PRES   REMARKS
ALBUQUERQUE    MOCLDY    56  36  47 SE20      29.82F
EL PASO        PTCLDY    63  46  54 S7        29.88S
$$


........................KEY........................
SKY/WX - SKY CONDITION/WEATHER
TMP    - TEMPERATURE IN FAHRENHEIT
DP     - DEW POINT IN FAHRENHEIT
RH     - RELATIVE HUMIDITY IN PERCENT
WIND   - DIRECTION AND SPEED IN MILES PER HOUR (MPH)
VRB    - VARIABLE WIND DIRECTION
PRES   - MEAN SEA LEVEL PRESSURE IN INCHES OF MERCURY
         F - FALLING PRESSURE   R - RISING PRESSURE
         S - STEADY PRESSURE
VSB    - VISIBILITY IN MILES
HX     - HEAT INDEX IN FAHRENHEIT
WCI    - WIND CHILL INDEX IN FAHRENHEIT
TC     - TEMPERATURE IN CELSIUS WHICH IS ALSO KNOWN AS
         TEMPERATURE IN CENTIGRADE
AFB    - AIR FORCE BASE
         LUKE AFB IS LUKE AIR FORCE BASE
         DAVIS-MONTHAN IS DAVIS-MONTHAN AIR FORCE BASE
NAS    - NAVAL AIR STATION
         EL CENTRO NAS IS EL CENTRO NAVAL AIR STATION
N/A    - NOT AVAILABLE




USA.gov is the U.S. government's official web portal to all federal, state and local government web resources and services.